Location: Unspecified
(0.0000°N, 0.0000°E)
Time: 04:15:01
(UTC+00:00)

SR - All Passes

Search period start: 25 October 2014 00:00
Search period end: 04 November 2014 00:00
Orbit: 576 x 888 km, 66.7° (Epoch: 24 October)

Date Brightness Start Highest point End Pass type
(mag) Time Alt. Az. Time Alt. Az. Time Alt. Az.
25 Oct - 00:49:32 10° NW 00:53:14 24° WSW 00:56:47 10° SSW night (unlit)
25 Oct - 11:32:06 10° S 11:37:16 44° ESE 11:42:45 10° NE daylight
25 Oct - 13:16:37 10° W 13:19:20 14° WNW 13:22:07 10° NW daylight
26 Oct - 00:00:26 10° NNW 00:05:03 71° WSW 00:09:22 10° SSE night (unlit)
26 Oct - 10:45:18 10° SSE 10:49:04 19° ESE 10:52:58 10° ENE daylight
26 Oct - 12:26:04 10° SW 12:30:57 32° WNW 12:36:05 10° N daylight
26 Oct - 23:12:27 10° N 23:16:48 39° ENE 23:20:52 10° SE night (unlit)
27 Oct - 11:37:10 10° SSW 11:42:38 76° WNW 11:48:27 10° NNE daylight
27 Oct - 22:25:56 10° NE 22:28:26 14° ENE 22:30:51 10° ESE night (unlit)
28 Oct - 00:06:41 10° NW 00:10:20 24° WSW 00:13:48 10° SSW night (unlit)
28 Oct - 10:49:11 10° S 10:54:23 46° ESE 10:59:54 10° NE daylight
28 Oct - 12:33:49 10° W 12:36:27 13° WNW 12:39:10 10° NW daylight
28 Oct - 23:17:33 10° NNW 23:22:08 69° WSW 23:26:26 10° SSE night (unlit)
29 Oct - 10:02:19 10° SSE 10:06:10 19° ESE 10:10:10 10° ENE daylight
29 Oct - 11:43:11 10° SW 11:48:04 32° WNW 11:53:11 10° N daylight
29 Oct - 22:29:32 10° N 22:33:52 40° ENE 22:37:56 10° SE night (unlit)
30 Oct - 10:54:15 10° SSW 10:59:44 75° WNW 11:05:35 10° NNE daylight
30 Oct - 21:42:58 10° NE 21:45:31 15° ENE 21:47:58 10° ESE night (unlit)
30 Oct - 23:23:50 10° WNW 23:27:24 23° WSW 23:30:49 10° SSW night (unlit)
31 Oct - 10:06:14 10° S 10:11:29 47° ESE 10:17:03 10° NE daylight
31 Oct - 11:50:59 10° W 11:53:34 13° WNW 11:56:11 10° NW daylight
31 Oct - 22:34:39 10° NNW 22:39:12 67° WSW 22:43:28 10° SSE night (unlit)
01 Nov - 09:19:19 10° SSE 09:23:16 20° ESE 09:27:21 10° ENE daylight
01 Nov - 11:00:17 10° SW 11:05:10 31° WNW 11:10:16 10° N daylight
01 Nov - 21:46:37 10° N 21:50:56 40° ENE 21:55:00 10° SE night (unlit)
02 Nov - 10:11:19 10° SSW 10:16:50 73° WNW 10:22:41 10° NNE daylight
02 Nov - 21:00:00 10° NNE 21:02:34 15° ENE 21:05:04 10° ESE night (unlit)
02 Nov - 22:40:57 10° WNW 22:44:27 22° WSW 22:47:48 10° SSW night (unlit)
03 Nov - 09:23:16 10° S 09:28:34 48° ESE 09:34:10 10° NE daylight
03 Nov - 11:08:09 10° W 11:10:39 13° WNW 11:13:12 10° NW daylight
03 Nov - 21:51:44 10° NNW 21:56:15 65° WSW 22:00:29 10° SSE night (unlit)
